Delta, CO

10:04 AM MDT on September 30, 2016 (GMT -0600)
Delta

Weather History for KAJZ - December, 2012

Change the Weather History Date:

Saturday, December 15, 2012

  Actual Average (KMTJ) Record (KMTJ)
Temperature  
Mean Temperature 37 °F 26 °F  
Max Temperature 43 °F 37 °F 57 °F (2002)
Min Temperature 31 °F 15 °F 0 °F (2008)
Degree Days  
Heating Degree Days 28 39  
Month to date heating degree days 551  
Since 1 July heating degree days 1972  
Cooling Degree Days 0 0  
Month to date cooling degree days 0  
Year to date cooling degree days 643  
Moisture  
Dew Point 32 °F    
Average Humidity 81    
Maximum Humidity 98    
Minimum Humidity 52    
Precipitation  
Precipitation 0.00 in 0.02 in 0.07 in (2008)
Month to date precipitation 0.31  
Year to date precipitation 10.96  
Sea Level Pressure  
Sea Level Pressure 29.83 in    
Wind  
Wind Speed 6 mph (NE)    
Max Wind Speed 14 mph    
Max Gust Speed -    
Visibility 10 miles    
Events Rain , Snow    
T = Trace of Precipitation, MM = Missing Value Source: NWS Daily Summary

Daily Weather History Graph

Daily Weather History Graph

Search for Another Location

Airport or City:

Trip Planner

Search our weather history database for the weather conditions in past years. The results will help you decide how hot, cold, wet, or windy it might be!

Date:

Astronomy

Dec. 15, 2012 Rise Set
Actual Time 7:23 AM MST 4:51 PM MST
Civil Twilight 6:53 AM MST 5:21 PM MST
Nautical Twilight 6:20 AM MST 5:55 PM MST
Astronomical Twilight 5:48 AM MST 6:27 PM MST
Moon 9:19 AM MST (12/15) 7:58 PM MST (12/15)
Length of Visible Light 10h 27m
Length of Day
9h 28m
Waxing Crescent, 9% of the Moon is Illuminated
Dec 15
Waxing Crescent
Dec 19
First Quarter
Dec 28
Full
Jan 4
Last Quarter
Jan 11
New

Hourly Weather History & Observations

Time (MST) Temp. Windchill Dew Point Humidity Pressure Visibility Wind Dir Wind Speed Gust Speed Precip Events Conditions
12:15 AM 37.9 °F 33.5 °F 34.3 °F 87% 29.83 in 10.0 mi NE 5.8 mph - N/A   Overcast
12:35 AM 37.4 °F 33.8 °F 34.3 °F 89% 29.83 in 10.0 mi NE 4.6 mph - N/A   Overcast
12:55 AM 37.4 °F 32.8 °F 34.3 °F 89% 29.83 in 10.0 mi ENE 5.8 mph - N/A   Overcast
1:15 AM 37.4 °F 32.1 °F 34.3 °F 89% 29.84 in 10.0 mi ENE 6.9 mph - N/A   Overcast
1:35 AM 37.4 °F 32.8 °F 34.2 °F 88% 29.84 in 10.0 mi NNE 5.8 mph - N/A   Overcast
1:55 AM 37.6 °F 35.1 °F 34.2 °F 87% 29.85 in 10.0 mi SSE 3.5 mph - N/A   Overcast
2:15 AM 37.6 °F - 34.2 °F 87% 29.85 in 10.0 mi Calm Calm - N/A   Overcast
2:35 AM 37.6 °F 32.3 °F 34.0 °F 87% 29.85 in 10.0 mi ENE 6.9 mph - N/A   Overcast
2:55 AM 37.4 °F 34.9 °F 34.0 °F 87% 29.86 in 10.0 mi ENE 3.5 mph - N/A   Overcast
3:15 AM 36.7 °F 30.5 °F 34.2 °F 91% 29.85 in 10.0 mi NNE 8.1 mph - N/A   Overcast
3:35 AM 37.0 °F 33.3 °F 34.0 °F 89% 29.85 in 10.0 mi North 4.6 mph - N/A   Overcast
3:55 AM 38.5 °F 34.1 °F 33.3 °F 81% 29.85 in 10.0 mi North 5.8 mph - N/A   Overcast
4:15 AM 37.6 °F 32.3 °F 33.4 °F 85% 29.85 in 10.0 mi NNE 6.9 mph - N/A   Overcast
4:35 AM 37.8 °F 31.8 °F 32.7 °F 82% 29.85 in 10.0 mi NNE 8.1 mph - N/A   Overcast
4:55 AM 37.6 °F 34.0 °F 32.7 °F 83% 29.85 in 10.0 mi ESE 4.6 mph - N/A   Overcast
5:15 AM 37.4 °F 33.8 °F 32.0 °F 81% 29.86 in 10.0 mi East 4.6 mph - N/A   Overcast
5:35 AM 36.5 °F 31.0 °F 32.9 °F 87% 29.86 in 10.0 mi East 6.9 mph - N/A   Overcast
5:55 AM 36.3 °F 30.8 °F 32.5 °F 86% 29.86 in 10.0 mi NE 6.9 mph - N/A   Overcast
6:15 AM 36.5 °F 29.7 °F 32.0 °F 84% 29.86 in 10.0 mi NNE 9.2 mph - N/A   Overcast
6:35 AM 36.1 °F 27.3 °F 31.6 °F 84% 29.86 in 10.0 mi NNE 13.8 mph - N/A   Overcast
6:55 AM 35.6 °F 28.6 °F 31.6 °F 85% 29.87 in 10.0 mi NNE 9.2 mph - N/A   Overcast
7:15 AM 35.1 °F 28.6 °F 31.6 °F 87% 29.87 in 10.0 mi NNE 8.1 mph - N/A   Overcast
7:35 AM 35.2 °F 28.8 °F 31.5 °F 86% 29.87 in 10.0 mi NNE 8.1 mph - N/A   Overcast
7:55 AM 35.6 °F 28.0 °F 31.3 °F 84% 29.88 in 10.0 mi ENE 10.4 mph - N/A   Overcast
8:15 AM 35.6 °F 28.6 °F 31.8 °F 86% 29.88 in 10.0 mi NE 9.2 mph - N/A   Overcast
8:35 AM 35.6 °F 29.2 °F 31.8 °F 86% 29.88 in 10.0 mi NE 8.1 mph - N/A   Overcast
8:55 AM 35.8 °F 29.4 °F 32.0 °F 86% 29.88 in 10.0 mi NNE 8.1 mph - N/A   Overcast
9:15 AM 36.5 °F 29.7 °F 32.0 °F 84% 29.89 in 10.0 mi NNE 9.2 mph - N/A   Overcast
9:35 AM 37.4 °F 31.4 °F 31.8 °F 80% 29.88 in 10.0 mi NNE 8.1 mph - N/A   Overcast
9:55 AM 37.9 °F 32.1 °F 32.0 °F 79% 29.88 in 10.0 mi NNE 8.1 mph - N/A   Overcast
10:15 AM 38.8 °F 33.2 °F 31.8 °F 76% 29.88 in 10.0 mi NNE 8.1 mph - N/A   Scattered Clouds
10:35 AM 39.4 °F 33.8 °F 31.6 °F 74% 29.88 in 10.0 mi NE 8.1 mph - N/A   Clear
10:55 AM 40.3 °F 35.5 °F 31.8 °F 72% 29.87 in 10.0 mi NE 6.9 mph - N/A   Clear
11:15 AM 42.4 °F 38.1 °F 32.4 °F 68% 29.86 in 10.0 mi NE 6.9 mph - N/A   Mostly Cloudy
11:35 AM 42.8 °F 38.0 °F 30.7 °F 62% 29.85 in 10.0 mi ENE 8.1 mph - N/A   Overcast
11:55 AM 41.9 °F - 27.1 °F 56% 29.84 in 10.0 mi Calm Calm - N/A   Overcast
12:15 PM 42.3 °F 39.4 °F 28.4 °F 58% 29.84 in 10.0 mi NNW 4.6 mph - N/A   Overcast
12:35 PM 42.8 °F - 27.9 °F 56% 29.83 in 10.0 mi Calm Calm - N/A   Overcast
12:55 PM 43.5 °F - 28.2 °F 55% 29.82 in 10.0 mi Calm Calm - N/A   Overcast
1:15 PM 42.8 °F 41.1 °F 27.9 °F 56% 29.81 in 10.0 mi NNW 3.5 mph - N/A   Overcast
1:35 PM 43.0 °F - 26.6 °F 52% 29.81 in 10.0 mi Calm Calm - N/A   Overcast
1:55 PM 42.8 °F - 26.4 °F 52% 29.81 in 10.0 mi Calm Calm - N/A   Overcast
2:15 PM 43.0 °F - 26.6 °F 52% 29.80 in 10.0 mi Calm Calm - N/A   Overcast
2:35 PM 42.1 °F 40.2 °F 29.8 °F 62% 29.79 in 10.0 mi NNE 3.5 mph - N/A   Overcast
2:55 PM 42.3 °F 37.9 °F 29.7 °F 61% 29.79 in 10.0 mi ENE 6.9 mph - N/A   Overcast
3:15 PM 41.9 °F 36.3 °F 30.0 °F 63% 29.79 in 10.0 mi East 9.2 mph - N/A   Overcast
3:35 PM 41.5 °F 35.9 °F 29.7 °F 63% 29.79 in 10.0 mi East 9.2 mph - N/A   Overcast
3:55 PM 39.7 °F 32.7 °F 31.8 °F 73% 29.81 in 10.0 mi ENE 11.5 mph - N/A   Unknown
4:15 PM 37.8 °F 31.3 °F 32.4 °F 81% 29.81 in 10.0 mi ENE 9.2 mph - N/A   Overcast
4:35 PM 36.9 °F 32.2 °F 33.1 °F 86% 29.81 in 10.0 mi ENE 5.8 mph - N/A Rain Light Rain
4:55 PM 36.9 °F 31.4 °F 32.9 °F 86% 29.80 in 10.0 mi ENE 6.9 mph - N/A   Overcast
5:15 PM 36.7 °F 30.5 °F 32.9 °F 86% 29.79 in 10.0 mi NNE 8.1 mph - N/A   Overcast
5:35 PM 36.7 °F 29.9 °F 32.9 °F 86% 29.79 in 10.0 mi NNE 9.2 mph - N/A   Overcast
5:55 PM 36.5 °F 29.7 °F 32.5 °F 86% 29.79 in 10.0 mi NNE 9.2 mph - N/A   Overcast
6:15 PM 36.9 °F 31.4 °F 32.4 °F 84% 29.79 in 10.0 mi NNE 6.9 mph - N/A   Overcast
6:35 PM 36.5 °F 31.8 °F 32.5 °F 86% 29.79 in 10.0 mi NNE 5.8 mph - N/A   Light Drizzle
6:55 PM 35.6 °F 30.7 °F 32.4 °F 88% 29.79 in 10.0 mi North 5.8 mph - N/A Rain Light Rain
7:15 PM 34.9 °F 29.9 °F 32.0 °F 89% 29.79 in 10.0 mi North 5.8 mph - N/A   Scattered Clouds
7:35 PM 34.3 °F 29.2 °F 32.0 °F 91% 29.79 in 10.0 mi North 5.8 mph - N/A   Mostly Cloudy
7:55 PM 34.9 °F 30.8 °F 32.0 °F 89% 29.79 in 10.0 mi North 4.6 mph - N/A   Overcast
8:15 PM 35.2 °F 32.4 °F 32.0 °F 88% 29.79 in 10.0 mi North 3.5 mph - N/A   Overcast
8:35 PM 35.6 °F 31.7 °F 32.0 °F 87% 29.79 in 10.0 mi West 4.6 mph - N/A   Overcast
8:55 PM 35.4 °F 27.3 °F 32.5 °F 89% 29.79 in 7.0 mi West 11.5 mph - N/A Snow Light Snow
9:15 PM 33.8 °F - 32.0 °F 93% 29.80 in 1.2 mi Calm Calm - N/A Snow Light Snow
9:35 PM 34.2 °F - 32.0 °F 92% 29.79 in 4.0 mi Calm Calm - N/A Snow Light Snow
9:55 PM 33.3 °F - 32.0 °F 95% 29.79 in 10.0 mi Calm Calm - N/A   Overcast
10:15 PM 32.7 °F - 31.6 °F 96% 29.81 in 10.0 mi Calm Calm - N/A   Overcast
10:35 PM 32.4 °F - 31.8 °F 98% 29.81 in 10.0 mi Calm Calm - N/A   Scattered Clouds
10:55 PM 31.8 °F - 30.2 °F 94% 29.81 in 10.0 mi Calm Calm - N/A   Clear
11:15 PM 31.5 °F - 30.2 °F 95% 29.81 in 10.0 mi Calm Calm - N/A   Mostly Cloudy
11:35 PM 32.0 °F - 30.9 °F 96% 29.82 in 10.0 mi Calm Calm - N/A   Overcast
11:55 PM 32.0 °F - 31.1 °F 96% 29.82 in 10.0 mi Calm Calm - N/A   Overcast